Simultaneous Nadir Overpasses (SNOs) Predictions

Prediction of SNOs between AQUA and NPP Satellite Orbit:

Table of predicted SNOs for the next 14.0 days since TLE Epoch: 10/12/2012
Index Date (AQUA) Time (AQUA) Lat,Lon (AQUA) SZA (AQUA ) Date (NPP) Time (NPP) Lat,Lon (NPP) SZA (NPP ) Distance(km) Time Diff (sec)
1 10/14/2012 23:27:01 -77.09,-109.23 76.39 10/14/2012 23:26:39 -77.10,-109.13 76.40 2.69 22
2 10/15/2012 00:16:16 77.58, 60.36 103.06 10/15/2012 00:17:12 77.57, 60.29 103.03 1.91 56
3 10/17/2012 14:54:15 76.50,-163.07 105.19 10/17/2012 14:53:12 76.51,-163.04 105.24 0.87 63
4 10/17/2012 15:43:29 -77.14, 6.85 75.52 10/17/2012 15:43:44 -77.13, 6.74 75.51 2.90 15
5 10/20/2012 07:10:32 76.99, -45.48 105.57 10/20/2012 07:10:10 76.99, -45.43 105.57 1.32 22
6 10/20/2012 07:59:47 -77.56, 124.42 75.09 10/20/2012 08:00:43 -77.56, 124.35 75.12 1.79 56
7 10/22/2012 22:37:42 -76.60, -98.60 73.12 10/22/2012 22:36:49 -76.60, -98.60 73.07 0.14 53
8 10/22/2012 23:26:48 77.51, 72.45 105.87 10/22/2012 23:27:12 77.52, 72.55 105.83 2.50 24
9 10/25/2012 14:09:14 61.71,-173.07 121.81 10/25/2012 14:08:02 61.93,-174.64 122.36 85.86 72
10 10/25/2012 14:53:56 -77.19, 19.42 72.89 10/25/2012 14:53:54 -77.20, 19.46 72.90 1.18 2




NCC Satellite Simultaneous Nadir Overpasses (SNOs) Prediction Service
